Location: ??????????
(54.8537°N, 38.8755°E)
Time: 02:43:30
(UTC+00:00)

Vanguard 2 Rocket - Pass Details

Date: 16 September 2024
Orbit: 553 x 3298 km, 32.9° (Epoch: 10 October)

Event Time Altitude Azimuth Distance (km) Brightness Sun altitude
Rises 03:56:31 0° 263° (W) 6,093 10.5 7.4°
Reaches altitude 10° 04:01:34 10° 250° (WSW) 5,475 10.4 8.1°
Maximum altitude 04:12:59 22° 208° (SSW) 5,100 10.6 9.7°
Drops below altitude 10° 04:25:56 10° 168° (SSE) 6,233 11.5 11.5°
Sets 04:32:25 0° 155° (SSE) 7,132 12.1 12.4°
